Flag for France Weather past 2 weeks in Istres, France

Now
43 °F

Clear.


Feels Like: 32 °F
Forecast: 38 / 47 °F
Wind: 32 mph from North

Location: Istres Airport

Current Time: Jan 25, 2015 at 12:07:36 PM

Latest Report: Jan 25, 2015 at 11:30 AM


Visibility: N/A

Pressure: 30.09 "Hg

Humidity: 57%

Dew point: 28 °F

Location of IstresLocation

Historic Weather in Istres — Graph

°F

Istres temperature yesterday

Maximum temperature yesterday: 48 °F (at 2:30 PM)
Minimum temperature yesterday: 41 °F (at 12:00 AM)
Average temperature yesterday: 43 °F

Past Weeks' High & Low Weather Summary

 TemperatureHumidityPressure
High68 °F (Jan 10, 1:00 PM)100% (Jan 16, 9:30 PM)30.51 "Hg (Jan 16, 9:30 PM)
Low30 °F (Jan 18, 5:30 AM)39% (Jan 12, 3:30 PM)29.62 "Hg (Jan 21, 2:30 PM)
Average46 °F78%30.01 "Hg
* Reported Jan 10 11:00 AM — Jan 25 11:00 AM, Istres, Weather by CustomWeather, © 2014

Note: Actual official high and low records may vary slightly from our data, if they occured in-between our weather recording intervals... More about our weather records

Advertising

Istres weather history for previous 24 hours

 ConditionsComfort  
Time TempWeatherWind HumidityBarometerVisibility
11:00 AM
Jan 25
43 °FClear.31 mph57%30.09 "HgN/A
10:30 AM43 °FClear.33 mph57%30.07 "HgN/A
10:00 AM41 °FClear.33 mph61%30.07 "HgN/A
9:30 AM41 °FClear.35 mph61%30.07 "HgN/A
9:00 AM41 °FClear.37 mph61%30.07 "HgN/A
8:30 AM39 °FClear.41 mph65%30.07 "HgN/A
8:00 AM41 °FClear.30 mph61%30.07 "HgN/A
7:30 AM41 °FClear.33 mph61%30.04 "HgN/A
7:00 AM41 °FClear.33 mph61%30.01 "HgN/A
6:30 AM41 °FClear.30 mph61%30.01 "HgN/A
6:00 AM41 °FClear.33 mph61%30.01 "HgN/A
5:30 AM41 °FClear.36 mph61%30.01 "HgN/A
5:00 AM41 °FClear.36 mph61%30.01 "HgN/A
4:30 AM41 °FClear.33 mph61%29.98 "HgN/A
3:30 AM41 °FClear.39 mph66%29.98 "HgN/A
3:00 AM41 °FClear.36 mph61%29.98 "HgN/A
2:30 AM41 °FClear.36 mph61%29.98 "HgN/A
2:00 AM41 °FClear.35 mph66%29.98 "HgN/A
1:30 AM41 °FClear.37 mph61%29.95 "HgN/A
1:00 AM41 °FClear.37 mph61%29.95 "HgN/A
12:30 AM41 °FClear.41 mph61%29.95 "HgN/A
12:00 AM41 °FClear.44 mph66%29.92 "HgN/A
11:30 PM
Jan 24
41 °FClear.45 mph66%29.92 "HgN/A
11:00 PM41 °FClear.48 mph66%29.89 "HgN/A
10:30 PM41 °FClear.43 mph66%29.89 "HgN/A
10:00 PM41 °FPassing clouds.43 mph66%29.92 "HgN/A
9:30 PM41 °FPassing clouds.53 mph66%29.92 "HgN/A
9:00 PM41 °FPassing clouds.43 mph66%29.92 "HgN/A
8:30 PM41 °FPassing clouds.36 mph66%29.95 "HgN/A
8:00 PM41 °FPassing clouds.31 mph66%30.01 "HgN/A
7:30 PM41 °FClear.37 mph66%30.01 "HgN/A
7:00 PM41 °FClear.35 mph66%30.01 "HgN/A
6:30 PM43 °FClear.30 mph61%30.01 "HgN/A
6:00 PM43 °FClear.23 mph61%30.01 "HgN/A
5:30 PM45 °FClear.24 mph57%30.01 "HgN/A
5:00 PM46 °FClear.30 mph50%30.01 "HgN/A
4:30 PM46 °FClear.29 mph50%30.01 "HgN/A
4:00 PM48 °FClear.26 mph46%30.01 "HgN/A
3:30 PM48 °FClear.30 mph43%30.01 "HgN/A
3:00 PM48 °FClear.36 mph40%30.01 "HgN/A
2:30 PM48 °FClear.35 mph43%29.98 "HgN/A
2:00 PM46 °FClear.38 mph46%29.98 "HgN/A
1:30 PM45 °FClear.40 mph49%29.98 "HgN/A
1:00 PM43 °FClear.41 mph57%29.98 "HgN/A
12:30 PM43 °FClear.37 mph57%29.98 "HgN/A
12:00 PM45 °FClear.44 mph53%29.98 "HgN/A
Weather by CustomWeather, © 2014

See weather overviewHow to use our weather pages